Location: Rounton
(54.4000°N, 1.3500°W)
Time: 02:26:00
(UTC+00:00)

Altair - Pass Details

Date: 01 December 2021
Orbit: 1501 x 1683 km, 47.2° (Epoch: 19 January)

Event Time Altitude Azimuth Distance (km) Brightness Sun altitude
Rises 16:33:21 0° 221° (SW) 4,749 11.7 -6.7°
Reaches altitude 10° 16:36:43 10° 214° (SW) 3,741 10.7 -7.1°
Maximum altitude 16:45:06 38° 151° (SSE) 2,174 8.3 -8.2°
Drops below altitude 10° 16:53:18 10° 88° (E) 3,662 8.9 -9.2°
Enters shadow 16:53:55 - 86° (E) 3,843 9.0 -9.3°
